When you browse on this site, cookies collect data to enhance your experience and personalize the content and advertising you see.
Visit our Privacy Policy to learn more. By continuing to use the site, you agree to this use of cookies and data.
  • In France
  • List of Countries
  • For 7 days
  • Water Temperature
  • Satellite Maps
  • Weather Map
  • Weather Widgets
  • user-avatar
    Login

    Hourly Weather La Massana

    Today, 18 November, Sunday

    Time Temperature Precipitation Wind Pressure Humidity
    00:00 -1°C° 0 mm 2 mps 607 mmHg 91%
    01:00 -1°C° 0.8 mm 2 mps 607 mmHg 91%
    02:00 -1°C° 0.8 mm 2 mps 606 mmHg 91%
    03:00 -1°C° 0.8 mm 3 mps 606 mmHg 91%
    04:00 -1°C° 1.1 mm 3 mps 606 mmHg 91%
    05:00 -1°C° 1.1 mm 3 mps 606 mmHg 91%
    06:00 -2°C° 0 mm 2 mps 606 mmHg 90%
    07:00 -1°C° 0.8 mm 2 mps 606 mmHg 89%
    08:00 -1°C° 0.8 mm 2 mps 606 mmHg 88%
    09:00 -1°C° 0.8 mm 3 mps 606 mmHg 87%
    10:00 0°C° 0.6 mm 3 mps 606 mmHg 85%
    11:00 0°C° 0.6 mm 3 mps 606 mmHg 84%
    12:00 +1°C° 0.6 mm 3 mps 607 mmHg 83%
    13:00 +1°C° 0.6 mm 3 mps 606 mmHg 84%
    14:00 +1°C° 0.6 mm 3 mps 606 mmHg 85%
    15:00 0°C° 0.6 mm 3 mps 606 mmHg 87%
    16:00 0°C° 0.2 mm 3 mps 605 mmHg 88%
    17:00 -1°C° 0.2 mm 2 mps 605 mmHg 89%
    18:00 -2°C° 0.2 mm 2 mps 605 mmHg 90%
    19:00 -2°C° 0 mm 2 mps 605 mmHg 90%
    20:00 -2°C° 0 mm 2 mps 605 mmHg 90%
    21:00 -3°C° 0 mm 2 mps 604 mmHg 90%
    22:00 -3°C° 0 mm 2 mps 604 mmHg 89%
    23:00 -3°C° 0 mm 2 mps 604 mmHg 89%

    Tomorrow, 19 November, Monday

    Time Temperature Precipitation Wind Pressure Humidity
    00:00 -1°C° 0 mm 1 mps 603 mmHg 88%
    01:00 -1°C° 0 mm 1 mps 603 mmHg 87%
    02:00 -1°C° 0 mm 1 mps 602 mmHg 86%
    03:00 -1°C° 0 mm 1 mps 602 mmHg 85%
    04:00 -2°C° 0 mm 1 mps 602 mmHg 85%
    05:00 -2°C° 0 mm 1 mps 601 mmHg 84%
    06:00 -2°C° 0 mm 1 mps 601 mmHg 84%
    07:00 -1°C° 0 mm 1 mps 601 mmHg 82%
    08:00 0°C° 0 mm 1 mps 602 mmHg 79%
    09:00 +2°C° 0 mm 1 mps 602 mmHg 77%
    10:00 +2°C° 0.1 mm 1 mps 602 mmHg 76%
    11:00 +3°C° 0.1 mm 1 mps 602 mmHg 75%
    12:00 +3°C° 0.1 mm 1 mps 602 mmHg 74%
    13:00 +3°C° 0.3 mm 1 mps 601 mmHg 77%
    14:00 +3°C° 0.3 mm 1 mps 600 mmHg 79%
    15:00 +2°C° 0.3 mm 1 mps 600 mmHg 81%
    16:00 +1°C° 0.3 mm 1 mps 599 mmHg 86%
    17:00 0°C° 0.3 mm 1 mps 599 mmHg 90%
    18:00 -1°C° 0.3 mm 1 mps 598 mmHg 95%
    19:00 -1°C° 0.3 mm 1 mps 598 mmHg 95%
    20:00 -1°C° 0.3 mm 1 mps 598 mmHg 95%
    21:00 -1°C° 0.3 mm 1 mps 598 mmHg 95%
    22:00 -1°C° 0.3 mm 1 mps 598 mmHg 95%
    23:00 -1°C° 0.3 mm 1 mps 598 mmHg 95%

    Day after tomorrow, 20 November, Tuesday

    Time Temperature Precipitation Wind Pressure Humidity
    00:00 -1°C° 0.3 mm 1 mps 598 mmHg 95%
    01:00 -1°C° 0.2 mm 1 mps 598 mmHg 96%
    02:00 -1°C° 0.2 mm 1 mps 598 mmHg 96%
    03:00 -2°C° 0.2 mm 1 mps 597 mmHg 96%
    04:00 -2°C° 0.1 mm 1 mps 597 mmHg 96%
    05:00 -2°C° 0.1 mm 1 mps 597 mmHg 96%
    06:00 -3°C° 0.1 mm 1 mps 597 mmHg 96%
    07:00 -2°C° 0 mm 1 mps 597 mmHg 93%
    08:00 -2°C° 0 mm 1 mps 598 mmHg 90%
    09:00 -2°C° 0 mm 1 mps 598 mmHg 87%
    10:00 -3°C° 0 mm 2 mps 599 mmHg 82%
    11:00 -2°C° 0 mm 2 mps 599 mmHg 77%
    12:00 -1°C° 0 mm 2 mps 599 mmHg 73%
    13:00 -2°C° 0.3 mm 2 mps 599 mmHg 76%
    14:00 -2°C° 0.3 mm 2 mps 599 mmHg 79%
    15:00 -3°C° 0.3 mm 2 mps 599 mmHg 82%
    16:00 -3°C° 0.3 mm 2 mps 598 mmHg 85%
    17:00 -4°C° 0.3 mm 2 mps 598 mmHg 87%
    18:00 -4°C° 0.3 mm 2 mps 598 mmHg 90%
    19:00 -4°C° 0.6 mm 2 mps 599 mmHg 90%
    20:00 -4°C° 0.6 mm 2 mps 599 mmHg 91%
    21:00 -4°C° 0.6 mm 2 mps 599 mmHg 91%
    22:00 -2°C° 0.1 mm 1 mps 599 mmHg 92%
    23:00 -2°C° 0.1 mm 1 mps 599 mmHg 92%

    21 November, Wednesday

    Time Temperature Precipitation Wind Pressure Humidity
    00:00 -2°C° 0.1 mm 1 mps 599 mmHg 92%
    01:00 -3°C° 0 mm 1 mps 599 mmHg 92%
    02:00 -4°C° 0 mm 1 mps 598 mmHg 91%
    03:00 -6°C° 0 mm 1 mps 598 mmHg 91%
    04:00 -6°C° 0 mm 1 mps 598 mmHg 90%
    05:00 -6°C° 0 mm 1 mps 598 mmHg 88%
    06:00 -6°C° 0 mm 1 mps 599 mmHg 87%
    07:00 -4°C° 0 mm 1 mps 600 mmHg 84%
    08:00 -2°C° 0 mm 1 mps 601 mmHg 82%
    09:00 -1°C° 0 mm 1 mps 602 mmHg 79%
    10:00 -2°C° 0 mm 2 mps 603 mmHg 79%
    11:00 -1°C° 0 mm 2 mps 603 mmHg 78%
    12:00 +1°C° 0 mm 2 mps 604 mmHg 78%
    13:00 +1°C° 0 mm 2 mps 604 mmHg 77%
    14:00 +1°C° 0 mm 2 mps 604 mmHg 77%
    15:00 +1°C° 0 mm 2 mps 604 mmHg 77%
    16:00 -2°C° 0 mm 2 mps 604 mmHg 81%
    17:00 -2°C° 0 mm 1 mps 604 mmHg 86%
    18:00 -3°C° 0 mm 1 mps 603 mmHg 90%
    19:00 -4°C° 0 mm 1 mps 604 mmHg 87%
    20:00 -4°C° 0 mm 1 mps 604 mmHg 85%
    21:00 -4°C° 0 mm 1 mps 604 mmHg 82%
    22:00 -4°C° 0 mm 1 mps 604 mmHg 82%
    23:00 -4°C° 0 mm 1 mps 604 mmHg 81%

    22 November, Thursday

    Time Temperature Precipitation Wind Pressure Humidity
    00:00 -4°C° 0 mm 1 mps 604 mmHg 81%
    01:00 -4°C° 0 mm 1 mps 604 mmHg 81%
    02:00 -4°C° 0 mm 1 mps 605 mmHg 82%
    03:00 -4°C° 0 mm 1 mps 605 mmHg 82%
    04:00 -4°C° 0 mm 1 mps 605 mmHg 83%
    05:00 -4°C° 0 mm 1 mps 605 mmHg 83%
    06:00 -4°C° 0 mm 1 mps 605 mmHg 83%
    07:00 -4°C° 0 mm 2 mps 606 mmHg 80%
    08:00 -3°C° 0 mm 2 mps 607 mmHg 77%
    09:00 -1°C° 0 mm 2 mps 608 mmHg 73%
    10:00 +1°C° 0 mm 2 mps 608 mmHg 71%
    11:00 +2°C° 0 mm 2 mps 609 mmHg 69%
    12:00 +3°C° 0 mm 2 mps 609 mmHg 67%
    13:00 +2°C° 0 mm 2 mps 609 mmHg 68%
    14:00 +2°C° 0 mm 2 mps 609 mmHg 69%
    15:00 +2°C° 0 mm 2 mps 609 mmHg 70%
    16:00 -1°C° 0 mm 2 mps 608 mmHg 73%
    17:00 -3°C° 0 mm 2 mps 608 mmHg 75%
    18:00 -3°C° 0 mm 1 mps 607 mmHg 78%
    19:00 -3°C° 0 mm 1 mps 607 mmHg 77%
    20:00 -3°C° 0 mm 1 mps 608 mmHg 77%
    21:00 -5°C° 0 mm 2 mps 608 mmHg 76%
    22:00 -4°C° 0 mm 2 mps 608 mmHg 78%
    23:00 -4°C° 0 mm 2 mps 608 mmHg 80%

    23 November, Friday

    Time Temperature Precipitation Wind Pressure Humidity
    00:00 -4°C° 0 mm 2 mps 608 mmHg 82%
    01:00 -4°C° 0 mm 2 mps 608 mmHg 82%
    02:00 -4°C° 0 mm 2 mps 608 mmHg 82%
    03:00 -3°C° 0 mm 2 mps 608 mmHg 83%
    04:00 -3°C° 0 mm 2 mps 608 mmHg 83%
    05:00 -3°C° 0 mm 2 mps 608 mmHg 83%
    06:00 -3°C° 0 mm 2 mps 608 mmHg 84%
    07:00 -2°C° 0.1 mm 2 mps 609 mmHg 83%
    08:00 -1°C° 0.1 mm 2 mps 609 mmHg 83%
    09:00 +1°C° 0.1 mm 1 mps 610 mmHg 82%
    10:00 +1°C° 0.4 mm 2 mps 610 mmHg 83%
    11:00 +1°C° 0.4 mm 2 mps 610 mmHg 83%
    12:00 +2°C° 0.4 mm 2 mps 610 mmHg 84%
    13:00 +2°C° 0.1 mm 2 mps 610 mmHg 84%
    14:00 +2°C° 0.1 mm 2 mps 610 mmHg 84%
    15:00 +2°C° 0.1 mm 2 mps 609 mmHg 84%
    16:00 +2°C° 0 mm 1 mps 609 mmHg 85%
    17:00 0°C° 0 mm 1 mps 608 mmHg 86%
    18:00 -1°C° 0 mm 1 mps 608 mmHg 87%
    19:00 -1°C° 0 mm 1 mps 608 mmHg 83%
    20:00 -2°C° 0 mm 1 mps 608 mmHg 79%
    21:00 -2°C° 0 mm 1 mps 608 mmHg 75%
    22:00 -2°C° 0 mm 1 mps 608 mmHg 73%
    23:00 -2°C° 0 mm 1 mps 608 mmHg 70%
    Show more